Location: Unspecified
(45.3712°N, 0.6436°E)
Time: 15:58:14
(UTC+02:00)

ISS - Pass Details

Date: 17 July 2018
Orbit: 402 x 408 km, 51.6° (Epoch: 23 July)

Event Time Altitude Azimuth Distance (km) Brightness Sun altitude
Exits shadow 01:41:00 32° 41° (NE) 720 -2.3 -23.2°
Drops below altitude 10° 01:43:00 10° 56° (ENE) 1,471 -0.7 -23.2°
Sets 01:45:07 0° 61° (ENE) 2,335 0.4 -23.3°
